McComb, MS

12:31 AM CDT on May 29, 2017 (GMT -0500)
McComb-Pike County-Lewis

Weather History for KMCB - May, 2012

Change the Weather History Date:

Thursday, May 10, 2012

  Actual Average Record
Temperature  
Mean Temperature 68 °F -  
Max Temperature 81 °F 81 °F 92 °F (1955)
Min Temperature 55 °F 57 °F 43 °F (1961)
Cooling Degree Days 2    
Growing Degree Days 18 (Base 50)    
Moisture  
Dew Point 52 °F    
Average Humidity 63    
Maximum Humidity 97    
Minimum Humidity 28    
Precipitation  
Precipitation 0.00 in - - ()
Sea Level Pressure  
Sea Level Pressure 29.94 in    
Wind  
Wind Speed 1 mph (ENE)    
Max Wind Speed 7 mph    
Max Gust Speed -    
Visibility 10 miles    
Events      
Averages and records for this station are not official NWS values.
T = Trace of Precipitation, MM = Missing Value Source: NWS Daily Summary

Daily Weather History Graph

Daily Weather History Graph

Search for Another Location

Airport or City:

Trip Planner

Search our weather history database for the weather conditions in past years. The results will help you decide how hot, cold, wet, or windy it might be!

Date:

Astronomy

May. 10, 2012 Rise Set
Actual Time 6:09 AM CDT 7:47 PM CDT
Civil Twilight 5:43 AM CDT 8:13 PM CDT
Nautical Twilight 5:11 AM CDT 8:45 PM CDT
Astronomical Twilight 4:38 AM CDT 9:18 PM CDT
Moon No Moon Rise 10:34 AM CDT (5/10)
Length of Visible Light 14h 30m
Length of Day
13h 38m
Waning Gibbous, 73% of the Moon is Illuminated
May 10
Waning Gibbous
May 12
Last Quarter
May 20
New
May 28
First Quarter
Jun 4
Full

Hourly Weather History & Observations

Time (CDT) Temp. Dew Point Humidity Pressure Visibility Wind Dir Wind Speed Gust Speed Precip Events Conditions
12:53 AM 60.1 °F 57.0 °F 90% 29.94 in 10.0 mi Calm Calm - N/A   Clear
1:53 AM 57.9 °F 57.0 °F 97% 29.94 in 10.0 mi Calm Calm - N/A   Clear
2:53 AM 57.9 °F 55.0 °F 90% 29.92 in 10.0 mi Calm Calm - N/A   Clear
3:53 AM 57.9 °F 54.0 °F 87% 29.93 in 10.0 mi Calm Calm - N/A   Clear
4:53 AM 57.9 °F 54.0 °F 87% 29.92 in 10.0 mi Calm Calm - N/A   Clear
5:53 AM 55.0 °F 52.0 °F 89% 29.93 in 10.0 mi North 3.5 mph - N/A   Clear
6:53 AM 55.0 °F 53.1 °F 93% 29.95 in 10.0 mi Calm Calm - N/A   Clear
7:53 AM 64.9 °F 57.9 °F 78% 29.96 in 10.0 mi Calm Calm - N/A   Clear
8:53 AM 71.1 °F 54.0 °F 55% 29.97 in 10.0 mi ENE 3.5 mph - N/A   Clear
9:53 AM 75.0 °F 46.0 °F 36% 29.98 in 10.0 mi ENE 4.6 mph - N/A   Clear
10:53 AM 75.0 °F 46.0 °F 36% 29.99 in 10.0 mi ESE 6.9 mph - N/A   Clear
11:53 AM 78.1 °F 45.0 °F 31% 29.98 in 10.0 mi Variable 3.5 mph - N/A   Clear
12:53 PM 78.1 °F 46.0 °F 32% 29.97 in 10.0 mi Calm Calm - N/A   Clear
1:53 PM 79.0 °F 43.0 °F 28% 29.95 in 10.0 mi Calm Calm - N/A   Clear
2:53 PM 79.0 °F 44.1 °F 29% 29.94 in 10.0 mi Calm Calm - N/A   Clear
3:53 PM 80.1 °F 44.1 °F 28% 29.92 in 10.0 mi Variable 4.6 mph - N/A   Clear
4:53 PM 79.0 °F 46.9 °F 32% 29.90 in 10.0 mi Variable 3.5 mph - N/A   Clear
6:53 PM 75.0 °F 52.0 °F 44% 29.91 in 10.0 mi Calm Calm - N/A   Clear
7:53 PM 70.0 °F 57.9 °F 65% 29.91 in 10.0 mi Calm Calm - N/A   Clear
8:53 PM 64.9 °F 57.9 °F 78% 29.94 in 10.0 mi Calm Calm - N/A   Clear
9:53 PM 61.0 °F 55.9 °F 83% 29.94 in 10.0 mi Calm Calm - N/A   Clear
10:53 PM 62.1 °F 57.9 °F 86% 29.96 in 10.0 mi Calm Calm - N/A   Clear
11:53 PM 61.0 °F 55.9 °F 83% 29.96 in 10.0 mi Calm Calm - N/A   Clear